Weather Service Report


190 
ASUS41 KBOX 280510
RWRBOX

REGIONAL WEATHER ROUNDUP
NATIONAL WEATHER SERVICE TAUNTON MA
1200 AM EST SAT FEB 28 2015

NOTE:  "FAIR" INDICATES FEW OR NO CLOUDS BELOW 12,000 FEET WITH NO 
SIGNIFICANT WEATHER AND/OR OBSTRUCTIONS TO VISIBILITY.  THE FOLLOWING 
OBSERVATION LOCATIONS DO NOT REPORT PRESENT WEATHER...PROVINCETOWN...
SMITHFIELD...BLOCK ISLAND...KEENE...AND OXFORD.

MAZALL-280600-
EASTERN MASSACHUSETTS
  
CITY           SKY/WX    TMP DP  RH WIND       PRES   REMARKS
BOSTON         CLEAR     18  -2  41 NW12      30.55R WCI   5          
BEVERLY        CLEAR     14  -7  38 NW7       30.53R WCI   4          
LAWRENCE       CLEAR     13  -2  51 W6        30.55R WCI   4          
BEDFORD        CLEAR      4  -7  60 CALM      30.54R                  
BLUE HILL        N/A     12  -3  51 NW14      30.48R WCI  -3          
NORWOOD        CLEAR     -4  -8  83 S6        30.55R WCI -16          
MARSHFIELD     CLEAR     10   3  72 SW5       30.55R WCI   2          
PLYMOUTH       CLEAR      5  -2  72 CALM      30.53R                  
TAUNTON        CLEAR      0  -5  79 CALM      30.54R                  
NEW BEDFORD    CLEAR     16  -3  43 NW5       30.54R WCI   9          
$$

MAZALL-280600-
CAPE COD AND THE ISLANDS
  
CITY           SKY/WX    TMP DP  RH WIND       PRES   REMARKS
FALMOUTH       CLEAR     14   1  57 NW7       30.52R WCI   4          
HYANNIS        CLEAR      3  -2  79 NW5       30.51R WCI  -6          
CHATHAM        CLEAR     10   4  76 W3        30.52R                  
PROVINCETOWN   CLEAR     25   3  39 NW13      30.52R WCI  13          
NANTUCKET      CLEAR     20  10  65 NW7       30.51R WCI  11          
MARTHAS VNYRD  CLEAR     19  -1  41 NW8       30.53R WCI   9          
$$
 
MAZALL-280600-
CENTRAL AND WESTERN MASSACHUSETTS
  
CITY           SKY/WX    TMP DP  RH WIND       PRES   REMARKS
WORCESTER      FAIR      11  -3  53 W14       30.47R WCI  -5          
FITCHBURG      CLEAR     13  -3  49 NW7       30.54R WCI   3          
ORANGE         CLEAR      7  -4  60 CALM      30.54R                  
SPRINGFIELD    CLEAR      9  -4  56 NW6       30.56R WCI  -1          
WESTFIELD      CLEAR     13  -2  51 NW10      30.57R WCI   0          
NORTH ADAMS    CLEAR      8  -3  61 W8        30.56R WCI  -4          
PITTSFIELD     CLEAR      7  -2  66 W3        30.50R                  
$$
 
RIZALL-280600-
RHODE ISLAND
  
CITY           SKY/WX    TMP DP  RH WIND       PRES   REMARKS
PROVIDENCE     CLEAR     17  -3  41 NW8       30.55R WCI   7          
NEWPORT        CLEAR     18   0  45 NW10      30.54R WCI   6          
BLOCK ISLAND   CLEAR     21   1  42 NW13G18   30.53R WCI   9          
SMITHFIELD     CLEAR     12  -9  37 W6        30.50R WCI   3          
WESTERLY       CLEAR     17  -1  45 NW5       30.57R WCI  10          
$$
 
CTZALL-280600-
CONNECTICUT
  
CITY           SKY/WX    TMP DP  RH WIND       PRES   REMARKS
BRADLEY INTL   CLEAR     15  -2  46 N8        30.58R WCI   4          
HARTFORD       CLEAR     15  -2  46 N7        30.61R WCI   5          
BRIDGEPORT     CLEAR     17   2  51 N8        30.60R WCI   7          
DANBURY        CLEAR      4  -4  69 CALM      30.59R                  
GROTON         CLEAR     15   1  53 NW9       30.58R WCI   3          
NEW HAVEN      CLEAR     18   0  45 N10       30.59R WCI   6          
CHESTER        FAIR      18   0  45 N8        30.56S WCI   7          
MERIDEN        CLEAR      9   2  73 N3        30.60R                  
WILLIMANTIC    CLEAR     14  -2  49 NW5       30.57R WCI   6          
OXFORD         CLEAR     10  -8  44 N9        30.55R WCI  -2          
$$

MEZ002-015-021-024-NHZ003-005-008-011-012-014-VTZ005-008-280600-
NORTHERN NEW ENGLAND
  
CITY           SKY/WX    TMP DP  RH WIND       PRES   REMARKS
PORTLAND ME    PTCLDY     4  -6  63 CALM      30.50R                  
BANGOR ME      CLEAR      7 -11  43 W6        30.47R WCI  -3          
CONCORD NH     CLEAR      0  -7  72 NE3       30.51R                  
MANCHESTER NH  CLEAR     13  -3  49 CALM      30.51R                  
NASHUA NH      CLEAR      5  -7  58 CALM      30.54R                  
PORTSMOUTH NH  CLEAR     10  -8  43 W7        30.50R WCI  -1          
JAFFREY NH     CLEAR     -3  -8  79 S5        30.47R WCI -13          
KEENE NH       CLEAR      0  -6  78 CALM      30.53R                  
BURLINGTON VT  CLEAR      1  -8  66 CALM      30.56R                  
MT. WASHINGTON CLEAR    -11 -18  70 NW35        N/A  WCI -43          
$$

NYZ052-076-280600-
EASTERN NEW YORK
  
CITY           SKY/WX    TMP DP  RH WIND       PRES   REMARKS
ALBANY         PTCLDY     8  -2  63 CALM      30.63R                  
NEW YORK CITY  CLEAR     21   1  41 NW14      30.62R WCI   8          
$$
 
ANZALL-280600-
MARINE OBSERVATIONS
  
STATION/POSITION TIME  TEMP    WIND        PRES    VSBY  WAVE
                       AIR SEA DIR/SP/G                  HT/PER
                 (UTC) (F)     (DEG/KT/KT) (MB)    (MI)  (FT/S)
BOSTON BUOY      0450   24 36  320/ 17/ 19 1033.9R         3/11
BUZZARDS BAY     0400          310/ 16/ 17 1034.0R
NANTUCKET SOUND  0450   27 33  300/ 12/ 16 1033.5R         1/11
MASS BAY-STELLWA 0404   24 36  310/ 16/ 19   N/A    1 7/8  4/11
ISLE OF SHOALS   0500   21     290/ 14/ 16 1032.6R
S OF BLOCK IS    0438      37                N/A           6/11
$$

......................KEY.........................
  SKY/WX - SKY CONDITION/PRESENT WEATHER
  TMP    - TEMPERATURE IN FAHRENHEIT
  DWPT   - DEWPOINT IN FAHRENHEIT
  RH     - RELATIVE HUMIDITY IN PERCENT
  WIND   - DIRECTION AND SPEED IN MPH
  PRES   - MEAN SEA LEVEL PRESSURE IN INCHES OF HG
  WCI    - WIND CHILL INDEX
  VSB    - VISIBILITY IN MILES
  HX     - HEAT INDEX
  TC     - TEMPERATURE IN CELSIUS
  VRB    - VARIABLE WIND DIRECTION
  N/A    - NOT AVAILABLE

Return to Home page


Western Regional Climate Center, wrcc@dri.edu